User: anonymous   Login
Location: Bangkok
(13.7500°N, 100.5170°E)
Time: 07:31:01
(UTC+07:00)
Language:

SPOT 1/Viking Rocket - Orbit

View from above orbital plane
View from above orbital plane
View from above satellite
View from above satellite

Ground track
Ground track

The orbit data is extracted from the following two-line orbital elements,

1 16615U 86019C   14353.59631816  .00000438  00000-0  18213-3 0  5650
2 16615 098.7336 046.0139 0011856 196.9691 283.8883 14.31380305509217
Epoch (UTC): 19 December 2014 14:18:41
Eccentricity: 0.0011856
inclination: 98.7336°
perigee height: 778 km
apogee height: 795 km
right ascension of ascending node: 46.0139°
argument of perigee: 196.9691°
revolutions per day: 14.31380305
mean anomaly at epoch: 283.8883°
orbit number at epoch: 50921

The dashed part of the orbit path shows where the satellite is in the earth's shadow,  

DLR